Weather History for Corlu, Turkey

Change the Weather History Date:

Saturday, March 2, 2013

  Actual Average (LTBA) Record (LTBA)
Temperature  
Mean Temperature 42 °F -  
Max Temperature 53 °F 52 °F 64 °F (2002)
Min Temperature 32 °F 40 °F 35 °F (2003)
Degree Days  
Heating Degree Days 22    
Moisture  
Dew Point 39 °F    
Average Humidity 86    
Maximum Humidity 100    
Minimum Humidity 71    
Precipitation  
Precipitation 0.00 in - - ()
Sea Level Pressure  
Sea Level Pressure 30.00 in    
Wind  
Wind Speed 5 mph ()    
Max Wind Speed 16 mph    
Max Gust Speed -    
Visibility 4.6 miles    
Events      
Averages and records for this station are not official NWS values.
T = Trace of Precipitation, MM = Missing Value Source: Averaged Metar Reports

Daily Weather History Graph

Daily Weather History Graph

Search for Another Location

Airport:

Trip Planner

Search our weather history database for the weather conditions in past years. The results will help you decide how hot, cold, wet, or windy it might be!

Date:

Astronomy

Mar. 02, 2013 Rise Set
Actual Time 6:41 AM EET 6:00 PM EET
Civil Twilight 6:13 AM EET 6:27 PM EET
Nautical Twilight 5:41 AM EET 6:59 PM EET
Astronomical Twilight 5:09 AM EET 7:31 PM EET
Moon 11:21 PM EET (3/2) 8:52 AM EET (3/2)
Length of Visible Light 12h 14m
Length of Day
11h 19m
Waning Gibbous, 77% of the Moon is Illuminated
Mar 2
Waning Gibbous
Mar 4
Last Quarter
Mar 11
New
Mar 19
First Quarter
Mar 27
Full

Hourly Weather History & Observations

Time (EET) Temp. Windchill Dew Point Humidity Pressure Visibility Wind Dir Wind Speed Gust Speed Precip Events Conditions
12:20 AM 32.0 °F 28.7 °F 32.0 °F 100% 30.01 in - West 3.5 mph - N/A   Clear
12:50 AM 33.8 °F - 32.0 °F 93% 30.01 in - Variable 1.2 mph - N/A   Clear
1:20 AM 37.4 °F - 35.6 °F 93% 30.01 in - Variable 2.3 mph - N/A   Clear
1:50 AM 33.8 °F - 32.0 °F 93% 30.01 in - Variable 1.2 mph - N/A   Clear
2:20 AM 32.0 °F - 30.2 °F 93% 30.01 in - West 2.3 mph - N/A   Clear
2:50 AM 32.0 °F 27.5 °F 30.2 °F 93% 29.98 in - West 4.6 mph - N/A   Clear
3:20 AM 32.0 °F 26.4 °F 32.0 °F 100% 29.98 in - West 5.8 mph - N/A   Clear
3:50 AM 33.8 °F - 33.8 °F 100% 29.98 in - Variable 2.3 mph - N/A   Clear
4:20 AM 33.8 °F - 33.8 °F 100% 29.98 in - West 2.3 mph - N/A   Clear
4:50 AM 32.0 °F - 30.2 °F 93% 29.98 in - West 2.3 mph - N/A   Clear
5:20 AM 32.0 °F - 32.0 °F 100% 29.98 in - Variable 2.3 mph - N/A   Clear
5:50 AM 33.8 °F - 33.8 °F 100% 29.98 in - Variable 1.2 mph - N/A   Clear
6:20 AM 33.8 °F 29.6 °F 33.8 °F 100% 29.98 in 6.2 mi WSW 4.6 mph - N/A   Mostly Cloudy
6:39 AM 35.6 °F 32.8 °F 33.8 °F 93% 29.98 in 3.1 mi WSW 3.5 mph - N/A   Mostly Cloudy
6:50 AM 35.6 °F 31.7 °F 35.6 °F 100% 29.98 in 1.9 mi West 4.6 mph - N/A   Mostly Cloudy
7:20 AM 37.4 °F 34.9 °F 37.4 °F 100% 29.98 in 1.6 mi WSW 3.5 mph - N/A   Mostly Cloudy
7:50 AM 39.2 °F - 39.2 °F 100% 29.98 in 1.6 mi Variable 2.3 mph - N/A   Mostly Cloudy
8:20 AM 41.0 °F 37.1 °F 41.0 °F 100% 29.98 in 1.2 mi SSW 5.8 mph - N/A   Mostly Cloudy
9:20 AM 44.6 °F 41.4 °F 42.8 °F 93% 29.98 in 2.5 mi South 5.8 mph - N/A   Mostly Cloudy
9:50 AM 46.4 °F 41.5 °F 44.6 °F 93% 29.98 in 2.5 mi SSW 10.4 mph - N/A   Mostly Cloudy
10:20 AM 46.4 °F 41.9 °F 42.8 °F 87% 29.98 in 3.7 mi SW 9.2 mph - N/A   Mostly Cloudy
10:50 AM 48.2 °F - 42.8 °F 82% 29.98 in 4.3 mi SW 8.1 mph - N/A   Mostly Cloudy
11:20 AM 48.2 °F - 42.8 °F 82% 29.98 in 5.0 mi WSW 9.2 mph - N/A   Mostly Cloudy
11:50 AM 50.0 °F - 42.8 °F 76% 29.98 in 5.0 mi WSW 6.9 mph - N/A   Mostly Cloudy
12:20 PM 51.8 °F - 42.8 °F 71% 29.98 in 5.0 mi SW 6.9 mph - N/A   Mostly Cloudy
12:50 PM 51.8 °F - 42.8 °F 71% 29.98 in 5.0 mi SW 5.8 mph - N/A   Mostly Cloudy
1:50 PM 51.8 °F - 44.6 °F 76% 29.98 in 5.0 mi West 4.6 mph - N/A   Mostly Cloudy
2:20 PM 53.6 °F - 44.6 °F 72% 29.98 in 5.0 mi Variable 4.6 mph - N/A   Mostly Cloudy
2:50 PM 53.6 °F - 44.6 °F 72% 29.98 in 6.2 mi Variable 3.5 mph - N/A   Mostly Cloudy
3:20 PM 53.6 °F - 44.6 °F 72% 29.98 in 6.2 mi NW 5.8 mph - N/A   Mostly Cloudy
3:50 PM 53.6 °F - 44.6 °F 72% 29.98 in 6.2 mi NW 5.8 mph - N/A   Mostly Cloudy
4:20 PM 53.6 °F - 44.6 °F 72% 29.98 in 6.2 mi NW 4.6 mph - N/A   Mostly Cloudy
4:50 PM 51.8 °F - 44.6 °F 76% 29.98 in 5.0 mi Variable 3.5 mph - N/A   Mostly Cloudy
5:20 PM 48.2 °F - 44.6 °F 87% 29.98 in 5.0 mi SE 6.9 mph - N/A   Mostly Cloudy
5:50 PM 48.2 °F - 44.6 °F 87% 30.01 in 3.1 mi East 4.6 mph - N/A   Mostly Cloudy
6:20 PM 48.2 °F - 42.8 °F 82% 30.01 in 3.1 mi ENE 8.1 mph - N/A   Mostly Cloudy
6:50 PM 46.4 °F 42.4 °F 37.4 °F 71% 30.01 in 5.0 mi NE 8.1 mph - N/A   Mostly Cloudy
7:20 PM 44.6 °F 38.8 °F 37.4 °F 76% 30.04 in 5.0 mi NE 11.5 mph - N/A   Mostly Cloudy
7:50 PM 44.6 °F 38.8 °F 35.6 °F 71% 30.04 in 5.0 mi NE 11.5 mph - N/A   Mostly Cloudy
8:20 PM 42.8 °F 36.2 °F 35.6 °F 76% 30.06 in 5.0 mi NE 12.7 mph - N/A   Mostly Cloudy
8:50 PM 42.8 °F 36.2 °F 37.4 °F 81% 30.06 in 6.2 mi NE 12.7 mph - N/A   Mostly Cloudy
9:20 PM 42.8 °F 35.8 °F 37.4 °F 81% 30.06 in 6.2 mi NE 13.8 mph - N/A   Mostly Cloudy
9:50 PM 42.8 °F 36.2 °F 37.4 °F 81% 30.09 in 6.2 mi NE 12.7 mph - N/A   Mostly Cloudy
10:20 PM 42.8 °F 36.2 °F 37.4 °F 81% 30.09 in 6.2 mi NE 12.7 mph - N/A   Mostly Cloudy
10:50 PM 42.8 °F 35.4 °F 39.2 °F 87% 30.09 in 6.2 mi NE 15.0 mph - N/A   Mostly Cloudy
11:20 PM 42.8 °F 35.1 °F 39.2 °F 87% 30.09 in 5.0 mi NE 16.1 mph - N/A   Mostly Cloudy
11:50 PM 42.8 °F 35.1 °F 39.2 °F 87% 30.09 in 5.0 mi NE 16.1 mph - N/A   Mostly Cloudy